• Join FlightAware (Why Join?)
  • Login
  • US Flag GB Flag 
11:15 EDT


 

Airport Tracker/Info


-or-


 

Live Flight TrackerFlight Track Log ✈ DAL6115 ✈ 08-Apr-2013 ✈ KCHS - KDTW

Flight Track Log - Related Links

Times and Time Zones

All times are in EDT time to prevent confusion due to time zone crossing. See the DAL6115 flight status page for this flight to view local times or setup timezone preferences in your user account.

Time Position Orientation Groundspeed Altitude Reporting Facility
EDT Latitude Longitude Course Direction KTS MPH feet Rate Location/Type
09:32 33.0556 -80.0647 337° Northwest 229 264 5,900  Level Jacksonville Center
09:33 33.1103 -80.0903 339° North 240 276 8,300 2,100 Climbing Jacksonville Center
09:34 33.1678 -80.1331 328° Northwest 247 284 10,100 1,440 Climbing Jacksonville Center
09:35 33.2333 -80.1783 330° Northwest 255 293 11,200 1,080 Climbing Jacksonville Center
09:36 33.4382 -80.3024 337° Northwest  Level FlightAware Approximate
09:36 33.3011 -80.2283 328° Northwest 288 331 12,300  Level Jacksonville Center
09:37 33.5305 -80.3486 337° Northwest  Level FlightAware Approximate
09:37 33.3858 -80.2781 334° Northwest 315 362 13,300  Level Jacksonville Center
09:38 33.4783 -80.3203 339° North 336 387 14,400 1,080 Climbing Jacksonville Center
09:39 33.5750 -80.3572 342° North 349 402 15,500 1,200 Climbing Jacksonville Center
09:40 33.6758 -80.3769 351° North 356 410 16,800 1,200 Climbing Jacksonville Center
09:41 33.7761 -80.3939 352° North 362 417 18,000 1,020 Climbing Jacksonville Center
09:42 33.8808 -80.4111 352° North 362 417 18,900 1,020 Climbing Jacksonville Center
09:43 33.9814 -80.4308 351° North 362 417 20,100 1,200 Climbing Jacksonville Center
09:45 34.2017 -80.4722 351° North 379 436 22,700 1,200 Climbing Atlanta Center
09:46 34.3044 -80.4906 352° North 379 436 23,900 1,200 Climbing Atlanta Center
09:47 34.4114 -80.5061 353° North 374 430 25,100 1,140 Climbing Atlanta Center
09:48 34.5142 -80.5247 352° North 374 430 26,200 1,080 Climbing Atlanta Center
09:49 34.6169 -80.5456 351° North 374 430 27,300 1,020 Climbing Atlanta Center
09:50 34.7197 -80.5614 353° North 374 430 28,300 960 Climbing Atlanta Center
09:51 34.8222 -80.5775 353° North 374 430 29,300 960 Climbing Atlanta Center
09:52 34.9272 -80.5958 352° North 374 430 30,300 1,020 Climbing Atlanta Center
09:53 35.0258 -80.6122 352° North 369 425 31,400 1,020 Climbing Atlanta Center
09:54 35.1306 -80.6331 351° North 369 425 32,400 960 Climbing Atlanta Center
09:55 35.2544 -80.6561 351° North 374 430 33,600 720 Climbing Atlanta Center
09:56 35.3592 -80.6747 352° North 374 430 34,000 180 Climbing Atlanta Center
09:57 35.4661 -80.6933 352° North 380 437 34,000  Level Atlanta Center
09:58 35.5750 -80.7117 352° North 390 449 34,000  Level Atlanta Center
09:59 35.6861 -80.7303 352° North 395 455 34,000  Level Atlanta Center
10:00 35.7994 -80.7514 351° North 395 455 34,000  Level Atlanta Center
10:01 35.9000 -80.7703 351° North 401 461 34,000  Level Atlanta Center
10:02 36.0133 -80.7914 351° North 407 468 34,000  Level Atlanta Center
10:03 36.1281 -80.7997 357° North 412 474 34,000  Level Atlanta Center
10:04 36.2469 -80.7947 North 418 481 34,100  Climbing Atlanta Center
10:05 36.3656 -80.7900 North 423 487 34,000  Descending Atlanta Center
10:06 36.4825 -80.7931 359° North 423 487 34,100  Climbing Atlanta Center
10:07 36.5939 -80.8222 348° North 423 487 34,000 -60 Descending Atlanta Center
10:08 36.7092 -80.8511 349° North 413 475 34,000  Level Atlanta Center
10:11 36.9800 -80.9200 349° North 418 481 34,000  Level Indianapolis Center
10:12 37.0917 -80.9472 349° North 418 481 34,000  Level Indianapolis Center
10:13 37.2031 -80.9753 349° North 417 480 34,000  Level Indianapolis Center
10:14 37.3369 -81.0094 349° North 420 483 34,000  Level Indianapolis Center
10:15 37.4481 -81.0381 348° North 419 482 34,000  Level Indianapolis Center
10:16 37.5594 -81.0669 348° North 419 482 34,000  Level Indianapolis Center
10:17 37.6931 -81.1014 348° North 418 481 34,000  Level Indianapolis Center
10:18 37.8064 -81.1325 348° North 423 487 34,000  Level Indianapolis Center
10:19 37.9233 -81.1778 343° North 418 481 34,000  Level Indianapolis Center
10:20 38.0364 -81.2189 344° North 421 484 34,000  Level Indianapolis Center
10:21 38.1492 -81.2625 343° North 424 488 34,000  Level Indianapolis Center
10:22 38.2622 -81.3042 344° North 422 486 34,000  Level Indianapolis Center
10:23 38.3744 -81.3467 343° North 421 484 34,000  Level Indianapolis Center
10:24 38.5108 -81.3978 344° North 425 489 34,000  Level Indianapolis Center
10:25 38.6189 -81.4386 344° North 420 483 34,000  Level Indianapolis Center
10:26 38.7319 -81.4725 347° North 422 486 34,000  Level Indianapolis Center
10:27 38.8481 -81.5056 347° North 432 497 34,000  Level Indianapolis Center
10:28 38.9867 -81.5464 347° North 427 491 34,000  Level Indianapolis Center
10:29 39.1033 -81.5808 347° North 429 494 34,000  Level Indianapolis Center
10:30 39.2208 -81.6142 348° North 433 498 34,000  Level Indianapolis Center
10:31 39.3383 -81.6489 347° North 432 497 34,000 -240 Level Indianapolis Center
10:32 39.4556 -81.6831 347° North 433 498 33,600 -960 Descending Indianapolis Center
10:33 39.5725 -81.7183 347° North 431 496 32,100 -780 Descending Indianapolis Center
10:34 39.6875 -81.7514 348° North 423 487 32,000 -60 Descending Indianapolis Center
10:35 39.8081 -81.7889 347° North 418 481 32,000  Level Indianapolis Center
10:36 39.9264 -81.8236 347° North 431 496 32,000  Level Indianapolis Center
10:37 40.0653 -81.8653 347° North 437 503 32,000  Level Indianapolis Center
10:38 40.1850 -81.9014 347° North 438 504 32,000 -660 Level Indianapolis Center
10:39 40.3042 -81.9378 347° North 439 505 30,700 -900 Descending Indianapolis Center
10:41 40.4400 -81.9797 347° North 432 497 30,000 -360 Descending Cleveland Center
10:42 40.5708 -82.0181 347° North 432 497 30,000  Level Cleveland Center
10:43 40.6894 -82.0372 353° North 432 497 30,000  Level Cleveland Center
10:44 40.8100 -82.0617 351° North 432 497 30,000 -60 Level Cleveland Center
10:45 40.9328 -82.0836 352° North 437 503 29,900 -780 Descending Cleveland Center
10:46 41.0533 -82.1058 352° North 437 503 28,500 -1,020 Descending Cleveland Center
10:47 41.1642 -82.0892 North 443 510 27,900 -900 Descending Cleveland Center
10:48 41.2856 -82.0503 14° North 436 502 26,700 -1,200 Descending Cleveland Center
10:49 41.4025 -82.0336 North 441 507 25,600 -1,320 Descending Cleveland Center
10:50 41.4847 -82.1214 321° Northwest 366 421 24,100 -2,100 Descending Cleveland Center
10:51 41.5289 -82.2444 296° West 340 391 21,500 -2,700 Descending Cleveland Center
10:52 41.5708 -82.3622 295° West 345 397 18,800 -2,640 Descending Cleveland Center
10:53 41.6169 -82.4831 297° West 345 397 16,300 -2,760 Descending Cleveland Center
10:53 41.6328 -82.5278 295° West 335 386 15,100 -2,820 Descending Cleveland Center
10:53 41.6469 -82.5561 304° West 334 384 14,500 -1,740 Descending Cleveland Center
10:54 41.6567 -82.5953 288° West 339 390 14,000 -1,500 Descending Cleveland Center
10:54 41.6844 -82.6711 296° West 330 380 13,000 -1,500 Descending Cleveland Center
10:55 41.6964 -82.7050 295° West 339 390 12,500 -1,020 Descending Cleveland Center
10:55 41.7303 -82.7839 300° West 333 383 12,000 -540 Descending Cleveland Center
10:56 41.7486 -82.8069 317° Northwest 334 384 12,000  Level Cleveland Center
10:56 41.7994 -82.8700 317° Northwest 339 390 12,000  Level Cleveland Center
10:57 41.8178 -82.8903 321° Northwest 334 384 12,000  Level Cleveland Center
10:57 41.8708 -82.9506 320° Northwest 341 392 12,000  Level Cleveland Center
10:58 41.8892 -82.9764 314° West 329 379 12,000  Level Cleveland Center
10:58 41.9439 -83.0428 318° Northwest 347 399 12,000  Level Cleveland Center
10:59 41.9603 -83.0628 318° Northwest 340 391 12,000  Level Cleveland Center
10:59 42.0150 -83.1292 318° Northwest 341 392 12,000  Level Cleveland Center
11:00 42.0758 -83.2044 317° Northwest 281 323 12,000 -360 Level Cleveland Center
11:01 42.1392 -83.2358 340° North 277 319 11,400 -840 Descending FAA TRACON SMA TRACON (SMA)
11:02 42.1683 -83.2436 349° North 278 320 11,000 -900 Descending FAA TRACON SMA TRACON (SMA)
11:02 42.1906 -83.2347 17° North 273 314 10,800 -780 Descending FAA TRACON SMA TRACON (SMA)
11:02 42.2114 -83.2222 24° Northeast 269 310 10,500 -1,080 Descending FAA TRACON SMA TRACON (SMA)
11:03 42.2372 -83.2067 24° Northeast 265 305 10,100 -1,080 Descending FAA TRACON SMA TRACON (SMA)
11:03 42.2569 -83.1942 25° Northeast 260 299 9,800 -960 Descending FAA TRACON SMA TRACON (SMA)
11:03 42.2806 -83.1764 29° Northeast 251 289 9,500 -900 Descending FAA TRACON SMA TRACON (SMA)
11:04 42.2997 -83.1622 29° Northeast 254 292 9,200 -900 Descending FAA TRACON SMA TRACON (SMA)
11:04 42.3186 -83.1483 29° Northeast 252 290 8,900 -1,380 Descending FAA TRACON SMA TRACON (SMA)
11:04 42.3414 -83.1319 28° Northeast 245 282 8,300 -900 Descending FAA TRACON SMA TRACON (SMA)
11:05 42.3778 -83.1069 27° Northeast 241 277 8,000 -300 Descending FAA TRACON SMA TRACON (SMA)
11:05 42.4011 -83.0908 27° Northeast 243 280 8,000  Level FAA TRACON SMA TRACON (SMA)
11:06 42.4192 -83.0783 27° Northeast 240 276 8,000  Level FAA TRACON SMA TRACON (SMA)
11:06 42.4358 -83.0675 26° Northeast 225 259 8,000 -480 Level FAA TRACON SMA TRACON (SMA)
11:06 42.4561 -83.0522 29° Northeast 224 258 7,700 -960 Descending FAA TRACON SMA TRACON (SMA)
11:07 42.4733 -83.0408 26° Northeast 222 255 7,400 -960 Descending FAA TRACON SMA TRACON (SMA)
11:07 42.4917 -83.0417 358° North 218 251 7,100 -1,080 Descending FAA TRACON SMA TRACON (SMA)
11:07 42.5042 -83.0625 309° West 193 222 6,700 -1,200 Descending FAA TRACON SMA TRACON (SMA)
11:08 42.5100 -83.0844 290° West 196 226 6,400 -600 Descending Cleveland Center
11:09 42.4967 -83.1317 249° West 167 192 6,000 -300 Descending Cleveland Center
11:09 42.4775 -83.1433 204° Southwest 163 188 6,000  Level FAA TRACON SMA TRACON (SMA)
11:09 42.4656 -83.1517 207° Southwest 164 189 6,000 -300 Level FAA TRACON SMA TRACON (SMA)
11:10 42.4394 -83.1714 209° Southwest 161 185 5,700 -600 Descending FAA TRACON SMA TRACON (SMA)
11:10 42.4258 -83.1817 209° Southwest 157 181 5,400 -780 Descending FAA TRACON SMA TRACON (SMA)
11:11 42.4147 -83.1897 208° Southwest 161 185 5,200 -960 Descending FAA TRACON SMA TRACON (SMA)
11:11 42.4008 -83.2011 211° Southwest 163 188 4,800 -1,080 Descending FAA TRACON SMA TRACON (SMA)
11:11 42.3858 -83.2114 207° Southwest 161 185 4,500 -900 Descending FAA TRACON SMA TRACON (SMA)